SCP
0 0 0 0 0 0 0 0 0 0 0 0 0 0 0 0 0 0 0 0 0 0
0 0 0 0 0 0 0 0 0 0 0 0 0 0 0 0 0 0 0 0 0 0
0 0 0 0 0 0 0 0 0 0 0 0 0 0 0 0 0 0 0 0 0 0
0 0 0 0 0 0 0 0 0 0 0 0 0 0 0 0 0 0 0 0 0 0
0 0 0 0 0 0 0 0 0 0 0 0 0 0 0 0 0 0 0 0 0 0
0 0 0 0 0 0 0 0 0 0 0 0 0 0 0 0 0 0 0 0 0 0
0 0 0 0 0 0 0 0 0 0 0 0 0 0 0 0 0 0 0 0 0 0
0 0 0 0 0 0 0 0 0 0 0 0 0 0 0 0 0 0 0 0 0 0
0 0 0 0 0 0 0 0 0 0 0 0 0 0 0 0 0 0 0 0 0 0
0 0 0 0 0 0 0 0 0 0 0 0 0 0 0 0 0 0 0 0 0 0
0 0 0 0 0 0 0 0 0 0 0 0 0 0 0 0 0 0 0 0 0 0
0 0 0 0 0 0 0 0 0 0 0 0 0 0 0 0 0 0 0 0 0 0
0 0 0 0 0 0 0 0 0 0 0 0 0 0 0 0 0 0 0 0 0 0
0 0 0 0 0 0 0 0 0 0 0 0 0 0 0 0 0 0 0 0 0 0
Wind_Speed_500mb
95 103 106 95 96 98 101 97 92 90 90 87 82 80 80 82 82 79 79 77 74 71
104 98 107 108 101 103 107 106 98 96 91 88 85 82 81 82 83 83 82 81 75 72
100 107 95 106 111 116 112 106 100 100 98 92 85 81 81 83 83 86 85 82 74 70
96 99 99 107 105 105 107 105 103 101 96 95 89 84 82 83 85 89 84 81 72 70
85 88 87 104 102 94 102 105 104 103 104 100 95 87 84 84 85 89 87 79 71 67
74 79 86 91 92 93 97 99 98 99 101 102 97 90 85 84 85 86 84 79 70 63
61 76 86 91 89 90 89 88 94 96 94 95 96 94 86 84 85 83 77 71 67 58
42 46 57 82 86 81 82 85 86 88 90 92 95 95 88 82 82 79 76 69 61 58
51 49 50 61 76 79 81 79 84 83 86 88 90 89 85 82 80 78 71 66 64 61
56 57 54 56 63 71 76 84 78 83 71 82 83 79 79 76 74 72 69 66 63 58
55 58 56 55 65 69 72 73 73 80 85 82 77 76 75 70 70 72 67 63 62 59
45 56 66 59 64 69 73 71 73 73 82 85 78 76 72 74 74 69 65 64 60 58
60 55 61 65 65 70 72 73 74 75 75 75 72 73 74 71 69 70 70 65 61 56
66 63 61 60 65 69 68 64 63 70 69 69 71 71 71 70 69 75 74 70 62 60
Wind_Direction_500mb
252 252 251 253 256 257 258 257 257 255 253 251 251 250 251 250 250 250 251 251 251 248
251 252 252 248 251 256 258 258 259 259 257 255 252 251 250 250 249 249 249 250 250 247
255 253 257 254 251 253 257 258 260 259 258 255 252 250 249 249 248 247 248 247 248 248
256 255 256 255 255 258 260 260 260 259 258 256 253 252 249 248 246 247 245 246 246 248
258 256 260 258 259 260 260 259 256 258 257 255 253 251 248 247 244 242 242 243 245 246
252 253 256 258 261 260 260 259 257 256 256 255 253 250 248 246 245 241 241 243 244 245
254 255 255 258 259 260 262 263 262 259 258 255 254 252 250 245 243 243 241 242 243 244
278 267 263 254 255 256 259 263 263 261 258 255 252 254 252 247 243 239 237 241 241 236
294 285 273 261 254 253 252 255 258 259 256 254 251 250 251 248 240 237 238 237 233 231
301 293 287 276 262 257 253 251 251 249 252 251 247 245 246 241 240 240 237 234 232 235
297 291 285 281 270 259 253 251 251 249 249 244 240 243 241 237 237 234 234 234 232 234
288 283 286 275 271 267 255 249 244 244 244 239 242 237 235 230 227 230 226 223 219 227
294 283 279 284 273 264 255 248 240 236 237 243 241 235 228 228 226 219 211 218 220 223
290 289 286 280 273 267 260 248 241 242 234 235 230 229 228 225 222 221 223 216 214 213
Wind_Speed_850mb
95 103 106 95 96 98 101 97 92 90 90 87 82 80 80 82 82 79 79 77 74 71
104 98 107 108 101 103 107 106 98 96 91 88 85 82 81 82 83 83 82 81 75 72
100 107 95 106 111 116 112 106 100 100 98 92 85 81 81 83 83 86 85 82 74 70
96 99 99 107 105 105 107 105 103 101 96 95 89 84 82 83 85 89 84 81 72 70
85 88 87 104 102 94 102 105 104 103 104 100 95 87 84 84 85 89 87 79 71 67
74 79 86 91 92 93 97 99 98 99 101 102 97 90 85 84 85 86 84 79 70 63
61 76 86 91 89 90 89 88 94 96 94 95 96 94 86 84 85 83 77 71 67 58
42 46 57 82 86 81 82 85 86 88 90 92 95 95 88 82 82 79 76 69 61 58
51 49 50 61 76 79 81 79 84 83 86 88 90 89 85 82 80 78 71 66 64 61
56 57 54 56 63 71 76 84 78 83 71 82 83 79 79 76 74 72 69 66 63 58
55 58 56 55 65 69 72 73 73 80 85 82 77 76 75 70 70 72 67 63 62 59
45 56 66 59 64 69 73 71 73 73 82 85 78 76 72 74 74 69 65 64 60 58
60 55 61 65 65 70 72 73 74 75 75 75 72 73 74 71 69 70 70 65 61 56
66 63 61 60 65 69 68 64 63 70 69 69 71 71 71 70 69 75 74 70 62 60
Wind_Direction_850mb
252 252 251 253 256 257 258 257 257 255 253 251 251 250 251 250 250 250 251 251 251 248
251 252 252 248 251 256 258 258 259 259 257 255 252 251 250 250 249 249 249 250 250 247
255 253 257 254 251 253 257 258 260 259 258 255 252 250 249 249 248 247 248 247 248 248
256 255 256 255 255 258 260 260 260 259 258 256 253 252 249 248 246 247 245 246 246 248
258 256 260 258 259 260 260 259 256 258 257 255 253 251 248 247 244 242 242 243 245 246
252 253 256 258 261 260 260 259 257 256 256 255 253 250 248 246 245 241 241 243 244 245
254 255 255 258 259 260 262 263 262 259 258 255 254 252 250 245 243 243 241 242 243 244
278 267 263 254 255 256 259 263 263 261 258 255 252 254 252 247 243 239 237 241 241 236
294 285 273 261 254 253 252 255 258 259 256 254 251 250 251 248 240 237 238 237 233 231
301 293 287 276 262 257 253 251 251 249 252 251 247 245 246 241 240 240 237 234 232 235
297 291 285 281 270 259 253 251 251 249 249 244 240 243 241 237 237 234 234 234 232 234
288 283 286 275 271 267 255 249 244 244 244 239 242 237 235 230 227 230 226 223 219 227
294 283 279 284 273 264 255 248 240 236 237 243 241 235 228 228 226 219 211 218 220 223
290 289 286 280 273 267 260 248 241 242 234 235 230 229 228 225 222 221 223 216 214 213